CBERS 1 DEB, 35387

Orbit data source: Space-Track

CBERS 1 DEB, 35387 is space debris in SSO originally from a launch on Thu, 14 Oct 1999 UTC launched from the Taiyaun Space Center, China (TSC). Debris objects in space refer to the collection of defunct objects orbiting the Earth. Examples of debris include non-operational satellites, rocket bodies, and fragments generated from explosions, collisions, or faulty payload assembly.

Loading next visibility...
Identifier
35387, 1999-057SS
Orbit
SSO
Country
Flag of UnknownUnknown / CHBZ
Related business
Manufacturer
Unknown
Mission
Spacecraft
Bus & Motor
Unknown
Mass
Unknown
Launch date (UTC)
1999-10-14 (26 years ago)
Launch vehicle
Unknown
Launch site
Taiyaun Space Center, China (TSC)
Object type
Payload
Rocket body
Debris
Shape & HBR
Unknown shape, 0.1 m
Radar Cross Section
Small (<0.1 m²)

Expand to show TLE details & history
Last TLE update: 18 hours ago

TLE from 18 hours ago
0 CBERS 1 DEB
1 35387U 99057SS  25295.37776599  .00017942  00000-0  23019-2 0  9992
2 35387  98.5222 350.9868 0001179 247.5679 112.5407 14.81296955933930
Epoch: 2025-10-22T09:03Z
TLE epoch observation values (Epoch: 2025-10-22T09:03:58.981Z)
Latitude
-0.00002°
Longitude
-176.06119°
Altitude
628.554 km
Speed
7.544 km/s
True Right ascension
23h 23m 56s
True Declination
0° 00' 00"
Sunlit
Object was in full shadow at epoch
Visualization orbit readout
Latitude
Unknown
Longitude
Unknown
Altitude
Unknown
Speed
Unknown
Apparent Right ascension
Unknown
Apparent Declination
Unknown
Sunlit
N/A
Visualization observer readout
Local Sidereal Time
22:31:23
Azimuth
Unknown
Elevation
Unknown
Doppler factor
Unknown
Orbital elements
Apogee altitude
623.127 km
Perigee altitude
621.476 km
Semi-major axis
7,000.438 km
Eccentricity
0.00012
Inclination
98.5222°
RAAN
350.9868°
Arg. of periapsis
247.5679°
True anomaly
112.55318°
Mean anomaly
112.5407°
Eccentric anomaly
112.54694°
Mean motion
3.70557 °/min
Orbital period
97.15 mins
BSTAR
0.0023019
Loading maneuver chart data...
Computing Atmospheric mass density...

Documentation

Showing up to 5 results
|